Regional Weather Roundup
Issued by NWS Midland/Odessa, TX

Skip options and go directly to product.
Home | Oldest Version | Previous Version | Current Version | All | Graphics & Text | Save Text | Print | Product List | Glossary On

Skip product version selection by date and time.   
828
ASUS44 KMAF 051010
RWRMAF
MIDLAND AREA WEATHER ROUNDUP
NATIONAL WEATHER SERVICE MIDLAND TX
400 AM CST THU MAR 05 2015

...IN SOUTHWEST TEXAS AND SOUTHEAST NEW MEXICO...

CITY           SKY/WX    TMP DP  RH WIND       PRES   REMARKS
ALPINE         CLOUDY    23  21  95 NE14      30.43R WCI  10
ANDREWS        CLOUDY    24  16  73 N12G17    30.46R WCI  13
ARTESIA        CLOUDY    25  25 100 CALM      30.47S
BIG SPRING     CLOUDY    25  18  75 N13       30.48S WCI  13
CARLSBAD       CLOUDY    27  21  78 NE7       30.47R WCI  19
DRYDEN           N/A     31  24  75 N16       30.42R WCI  20
FORT STOCKTON  CLOUDY    24  23  96 N12       30.47R WCI  13
GUAD PASS      NOT AVBL
HOBBS          CLOUDY    23  18  80 N10       30.45R WCI  12
MARFA          CLOUDY    23  19  86 N25       30.31S WCI   7
MIDLAND AIRPK  MOCLDY    26  19  76 N9G17     30.47R WCI  16
MIDLAND INTL   CLOUDY    25  19  78 N16       30.45S WCI  12
ODESSA         CLOUDY    24  16  71 NE14      30.46R WCI  12
PECOS          CLOUDY    28  26  92 N7        30.51R WCI  20
PRESIDIO       FAIR      37  26  65 N21G29    30.30R WCI  26
SEMINOLE       CLOUDY    25  16  69 N8        30.46R WCI  16
SNYDER         CLOUDY    23  19  84 N14       30.47R WCI  10
WINK           CLOUDY    28  20  71 N8        30.47R WCI  20
$$
...OTHER STATIONS IN TEXAS...

CITY           SKY/WX    TMP DP  RH WIND       PRES   REMARKS
ABILENE        CLEAR     21  18  88 N13       30.46R WCI   9
AMARILLO       CLEAR     15  12  88 W8        30.42R WCI   4
AUSTIN         LGT RAIN  33  29  85 N22G30    30.30R WCI  21
BROWNSVILLE    LGT RAIN  46  43  89 N23G36    30.07R WCI  38
CORPUS CHRISTI CLOUDY    41  37  86 N24G32    30.14R WCI  31
DALLAS FTW     MOCLDY    25  21  85 N23G31    30.42R WCI  10
DEL RIO        CLOUDY    35  26  69 NW17G29   30.40R WCI  25
EL PASO        MOCLDY    34  24  67 E18       30.31R WCI  23
HOUSTON INT    CLOUDY    41  38  89 N17       30.18S WCI  32
LUBBOCK        CLOUDY    23  18  81 N8        30.43S WCI  14
SAN ANGELO     CLOUDY    27  21  78 N15       30.45R WCI  15
SAN ANTONIO    CLOUDY    36  30  79 N25G32    30.26R WCI  24
WACO           CLOUDY    28  25  88 N21G29    30.37R WCI  15
WICHITA FALLS  NOT AVBL
$$
...OTHER LOCATIONS IN NEW MEXICO...

CITY           SKY/WX    TMP DP  RH WIND       PRES   REMARKS
ALAMAGORDO     CLEAR     32  25  74 SE9       30.32R WCI  24
ALBUQUERQUE    CLEAR     25  18  74 N6        30.33R WCI  18
CANNON AFB     CLOUDY    22  16  78 NW6       30.40S WCI  14
CLOVIS         CLOUDY    21  16  79 N6        30.40S WCI  14
HOLLOMAN AFB   CLEAR     30  23  76 SE15      30.30R WCI  19
ROSWELL        CLOUDY    26  20  77 W3        30.44F
RUIDOSO        CLOUDY    16  14  93 SW5       30.30F FOG     WCI   9
SANTA FE       CLEAR     18  13  80 SE3       30.29S
TRUTH OR CONSE CLEAR     28  20  71 NE7       30.29R WCI  21
TUCUMCARI      CLEAR     16  12  84 W6        30.41S WCI   7
$$

USA.gov is the U.S. government's official web portal to all federal, state and local government web resources and services.